Temperature
23 23 23 22 22 21 21 21 20 20 20 19 19 19 19 19 18 18 18 18 18 18 18 18 18 18 18 18 18 18 18 18 18 17 17 17 17 17 17 17 17 17 17
23 23 22 22 22 22 21 21 20 20 20 20 19 19 19 19 19 18 18 18 18 18 18 18 18 18 18 18 18 18 18 18 18 18 17 17 17 17 17 17 17 17 17
23 23 23 22 22 22 21 21 21 20 20 20 19 19 18 18 18 18 18 18 18 18 18 18 18 18 18 18 18 18 18 18 18 18 18 17 18 17 17 17 17 17 17
24 23 23 23 22 22 22 21 21 20 20 19 19 19 19 19 19 18 18 18 18 18 18 18 18 18 18 18 18 18 18 18 18 18 18 18 18 17 17 17 17 17 17
24 24 24 23 23 22 22 21 21 20 20 19 19 19 19 19 18 18 18 18 18 18 18 18 18 18 18 18 18 18 18 18 18 18 18 18 18 18 17 17 17 17 17
24 24 24 23 23 22 22 21 21 20 20 19 19 19 19 18 18 18 18 18 18 18 18 18 18 18 18 18 18 18 18 18 18 18 18 18 18 18 18 17 17 17 17
24 24 23 23 23 22 22 21 21 20 20 19 19 19 19 18 18 18 18 18 18 18 18 18 18 18 18 18 18 18 18 18 18 18 18 18 18 18 18 17 17 17 17
25 24 24 23 23 22 22 21 21 21 20 20 19 19 19 18 18 18 18 18 18 18 18 18 18 18 18 18 18 18 18 18 18 18 18 18 18 17 17 17 17 17 17
25 25 24 24 23 23 22 22 21 21 20 20 19 19 18 18 18 18 18 18 18 18 18 18 18 18 18 18 18 18 18 17 17 17 17 17 18 17 17 17 17 17 17
24 24 24 24 23 23 22 22 21 21 20 20 19 19 19 18 18 18 18 18 18 18 18 18 18 18 18 18 18 17 17 17 17 17 17 17 17 17 17 17 17 17 17
25 25 24 24 23 23 22 22 21 21 20 20 19 19 19 18 18 18 18 18 18 18 18 18 17 17 17 17 17 17 17 17 17 17 17 17 17 17 17 17 17 17 17
25 25 25 24 23 23 22 22 21 21 20 20 19 19 19 18 18 18 18 18 18 18 18 18 17 17 17 17 17 17 17 17 17 17 17 17 17 17 17 17 17 17 16
25 25 24 24 23 23 22 22 21 21 20 20 19 19 19 18 18 18 18 18 18 18 18 17 17 17 17 17 17 17 17 17 17 17 17 17 16 16 16 16 16 16 16
25 24 24 24 23 23 22 22 21 21 20 20 19 19 19 18 18 18 18 18 18 18 17 17 17 17 17 17 17 17 17 16 16 16 16 16 16 16 16 16 16 16 16
24 24 24 24 23 23 22 22 21 21 20 20 19 19 19 18 18 18 18 18 18 18 17 17 17 17 17 17 17 16 16 16 16 16 16 16 16 16 16 16 16 16 15
25 25 24 24 23 23 22 22 21 21 20 20 20 19 19 18 18 18 18 18 18 17 17 17 17 17 17 17 16 16 16 16 16 16 16 16 16 16 15 15 15 15 15
25 24 24 24 24 23 23 22 22 21 20 20 19 19 19 18 18 18 18 18 17 17 17 17 17 17 16 16 16 16 16 16 16 16 16 16 15 15 15 15 15 15 15
25 25 24 24 23 23 23 22 21 21 20 20 19 19 18 18 18 18 18 17 17 17 17 17 16 16 16 16 16 16 16 16 15 15 15 15 15 15 15 15 15 15 15
25 25 24 24 23 23 22 22 21 20 20 20 19 19 19 18 18 18 17 17 17 17 17 16 16 16 16 16 16 15 15 15 15 15 15 15 15 15 15 14 14 14 14
24 24 24 23 23 22 22 21 21 20 20 20 19 19 18 18 18 18 17 17 17 17 16 16 16 16 15 15 15 15 15 15 15 15 14 14 14 14 14 14 14 14 13
24 24 23 23 22 22 21 21 20 20 20 19 19 18 18 18 18 17 17 17 16 16 16 16 15 15 15 15 15 15 14 14 14 14 14 14 13 13 13 13 13 13 13
22 22 22 22 21 21 20 20 20 20 19 19 18 18 18 17 17 17 17 16 16 15 15 15 15 14 14 14 14 14 14 14 13 13 13 13 13 12 12 12 12 12 12
21 21 21 20 20 19 19 19 19 19 18 18 18 18 17 17 17 16 16 16 15 15 15 14 14 14 14 14 14 14 13 13 13 13 12 12 12 12 12 11 11 11 11
20 20 19 19 19 19 18 18 18 18 18 17 17 17 17 16 16 16 15 15 15 15 14 14 14 14 14 13 13 13 13 13 12 12 12 12 11 11 11 11 11 10 10
19 19 19 18 18 18 18 17 17 17 17 16 16 16 16 16 15 15 15 14 14 14 14 14 14 13 13 13 13 13 12 12 12 12 11 11 11 11 11 10 10 10 10
18 18 18 18 17 17 17 16 16 16 16 15 15 15 15 15 15 14 14 14 14 13 13 13 13 13 12 12 12 12 11 11 11 11 11 11 10 10 10 10 10 9 9
Wind_Speed
11 11 12 12 12 11 11 11 10 9 8 5 4 3 3 2 2 4 8 9 10 10 9 5 5 5 5 5 5 3 3 2 2 2 1 2 1 2 4 5 5 8 11
10 11 11 11 12 12 11 10 10 10 9 6 5 4 3 2 3 3 5 9 9 9 9 6 5 5 4 5 5 4 3 2 3 3 2 1 3 2 3 3 5 6 8
15 13 12 11 11 11 12 11 11 10 9 7 4 3 2 1 1 2 3 6 9 9 8 8 6 5 5 5 5 5 5 3 2 3 4 3 4 2 2 2 4 4 4
13 12 12 12 12 11 11 10 11 10 8 8 7 7 5 5 5 4 4 4 7 9 9 8 7 6 5 5 6 5 4 5 3 2 3 3 4 3 1 2 2 3 5
14 14 13 13 11 11 11 10 10 9 9 8 8 7 5 4 3 3 4 4 5 7 8 9 7 6 5 6 6 5 5 5 5 4 3 2 2 2 3 2 2 1 2
13 12 11 10 9 9 10 10 10 9 9 9 8 8 7 6 4 4 4 4 4 4 6 7 7 6 5 6 6 6 6 6 5 4 4 4 3 4 4 4 3 2 2
11 11 12 11 11 11 11 10 10 9 9 9 8 8 8 7 6 5 5 5 4 4 6 5 5 5 5 6 5 5 6 6 5 5 5 4 4 4 4 4 3 2 2
11 12 12 12 11 12 11 11 10 9 8 8 8 7 6 5 5 5 5 5 5 5 5 5 6 6 6 6 5 5 5 5 5 6 5 4 4 4 4 4 4 3 2
11 12 11 11 11 11 11 11 11 9 8 8 7 6 6 6 6 5 5 4 5 5 5 6 6 6 5 5 5 4 5 4 5 5 5 5 4 4 4 5 5 5 4
10 10 10 11 10 10 9 10 10 9 8 8 7 6 6 6 5 4 5 5 5 5 5 5 6 6 5 5 5 4 4 5 4 4 4 4 4 4 4 4 4 5 5
13 11 9 10 10 9 9 9 9 8 7 7 6 6 5 5 5 4 5 5 4 4 5 5 5 5 5 5 4 5 5 5 4 4 4 5 4 3 3 3 4 4 4
11 10 10 9 9 10 9 9 9 9 8 7 6 6 5 4 4 4 4 4 4 4 4 4 5 5 5 5 5 5 4 5 5 4 4 4 4 4 4 4 4 4 4
10 8 8 9 10 10 10 10 9 9 8 7 7 6 5 5 5 4 4 4 4 3 3 4 4 5 5 5 5 4 4 5 5 5 5 5 4 4 4 4 4 4 4
11 10 9 9 9 10 10 9 9 9 9 8 7 7 6 6 5 4 4 4 3 3 3 3 4 4 4 4 4 4 4 4 4 4 4 4 4 5 5 4 4 4 4
11 12 11 9 8 8 8 9 9 9 9 9 8 7 6 5 5 4 4 3 3 3 3 3 3 3 3 3 4 4 4 4 3 2 2 3 4 5 4 4 4 4 5
12 13 12 11 10 10 9 9 8 9 8 9 8 7 6 5 5 4 4 3 2 2 2 2 2 2 2 3 4 4 3 3 2 2 1 1 1 2 2 3 4 5 6
11 11 12 11 11 10 9 10 9 8 8 8 7 7 6 6 6 5 4 3 3 2 2 2 2 2 1 2 3 3 2 2 2 2 2 2 1 0 0 1 1 2 4
11 9 9 8 7 7 7 8 8 8 8 7 7 6 6 6 5 5 4 3 2 3 2 2 2 2 1 2 2 2 2 1 1 1 2 1 0 0 1 1 1 1 0
10 9 8 7 7 8 8 9 8 7 7 7 6 6 7 6 6 5 4 3 3 2 2 2 2 2 1 1 2 2 2 1 1 0 1 1 1 0 2 3 2 1 1
8 7 8 7 7 7 8 9 8 7 7 7 6 6 6 7 6 6 5 3 3 3 3 2 2 2 2 2 2 3 2 2 1 1 1 2 1 2 3 3 3 2 1
8 8 9 8 6 7 8 8 7 7 6 6 5 5 5 6 6 5 4 3 3 3 3 3 2 2 2 2 2 3 2 3 2 1 0 0 1 2 2 2 2 3 3
8 8 9 7 5 6 7 7 5 4 4 5 5 5 4 4 5 5 4 3 4 4 3 2 2 1 1 2 3 3 3 4 3 3 2 1 2 2 2 1 2 4 4
7 7 8 7 5 4 6 6 3 4 5 6 5 4 4 3 4 4 4 3 3 3 3 3 3 2 1 1 3 4 4 4 3 3 4 3 2 1 1 2 4 3 3
7 6 7 7 5 4 4 4 3 4 6 5 4 4 4 4 3 3 3 3 2 3 3 3 3 2 2 2 1 2 2 3 3 2 2 2 2 1 1 2 1 1 2
5 6 6 6 4 4 5 4 4 4 5 4 4 3 4 5 4 4 3 2 1 1 2 3 3 3 3 3 4 3 3 3 3 3 2 1 1 1 1 1 1 1 1
6 6 6 6 5 5 5 5 4 4 5 4 3 2 3 4 4 4 3 7 4 4 3 1 1 1 2 3 3 4 5 5 6 4 2 2 2 3 2 2 2 1 2
Wind_Direction
179 167 165 166 163 163 164 164 163 170 163 159 162 162 177 184 186 191 191 188 185 183 178 179 178 173 174 181 174 159 161 179 150 103 23 342 287 216 211 200 193 203 209
167 168 167 169 171 172 170 168 169 175 175 173 167 163 167 187 195 203 196 196 192 192 190 180 179 178 175 180 176 160 157 186 160 141 125 336 333 302 237 206 199 201 203
174 174 174 178 176 176 176 178 176 177 177 167 150 143 132 124 190 212 215 210 197 198 195 190 183 184 180 187 192 177 168 188 208 171 156 168 221 271 302 239 215 201 195
176 176 180 181 183 182 177 172 174 175 175 170 170 172 183 199 208 200 213 223 209 204 198 194 191 190 189 190 201 189 179 172 199 216 204 188 169 172 258 302 256 215 206
178 179 186 185 183 177 174 173 174 178 179 180 183 183 193 203 198 193 212 228 226 213 205 199 193 193 193 196 203 193 188 183 190 194 190 195 190 174 175 239 270 265 228
178 180 182 175 174 172 172 174 175 184 184 183 184 186 191 194 191 200 211 224 227 223 214 203 197 196 196 198 204 201 197 198 198 196 187 180 182 195 183 207 227 233 257
170 169 170 173 174 173 175 176 176 183 184 184 189 192 192 191 198 203 209 212 218 221 218 208 203 204 204 202 199 202 205 201 200 205 207 202 202 189 176 180 204 221 246
172 172 174 173 175 177 175 175 178 182 180 183 190 191 189 191 202 205 204 209 217 219 215 206 207 205 204 208 199 202 208 204 209 217 212 211 215 200 190 182 178 202 243
174 174 172 170 172 176 177 176 177 178 182 185 184 188 192 195 205 211 210 217 222 222 215 207 206 206 202 201 195 206 211 203 213 222 222 224 226 211 207 194 181 181 208
170 171 170 172 175 177 175 171 174 178 179 181 184 190 195 201 205 204 211 218 225 224 204 206 205 204 202 204 198 206 209 202 212 215 219 230 233 222 211 201 199 193 193
175 174 173 172 169 168 167 169 171 171 174 182 186 186 193 200 201 204 214 219 222 211 202 200 199 200 203 206 205 212 206 205 216 224 220 231 228 227 225 211 205 203 186
170 167 166 163 162 165 169 172 173 174 179 181 182 188 188 186 193 209 215 210 212 210 204 192 192 199 201 199 203 213 208 203 210 220 218 234 238 232 230 223 219 214 198
163 160 157 163 167 170 173 175 176 178 178 175 178 185 185 186 197 206 205 200 200 202 198 192 197 202 205 204 206 209 211 215 218 218 218 231 227 234 229 225 223 220 211
165 164 166 169 172 174 175 175 178 177 175 174 178 185 190 193 196 198 194 196 196 197 205 206 205 206 206 202 205 202 204 215 225 224 221 227 225 226 229 229 221 209 196
166 170 172 171 170 173 175 175 175 175 173 173 180 187 190 189 186 187 191 195 200 210 211 207 208 206 200 205 200 204 207 208 218 224 224 231 227 220 220 222 214 202 193
174 178 176 173 175 177 177 176 178 176 170 174 182 182 179 178 180 182 179 176 184 183 168 173 183 196 214 199 191 193 198 196 190 210 258 268 258 228 220 213 212 203 195
168 176 178 180 182 178 173 175 174 165 163 170 177 178 175 177 182 175 162 167 181 163 150 159 151 142 161 185 180 186 173 181 183 192 226 256 270 295 160 156 217 215 200
167 176 177 175 169 162 159 159 154 154 162 169 173 177 173 174 173 164 167 178 170 157 157 149 139 139 152 141 131 129 125 137 167 193 202 190 235 325 116 125 95 73 95
163 168 170 164 156 153 150 143 145 151 154 164 172 176 171 168 165 164 169 169 161 160 157 154 152 155 167 149 144 127 120 131 139 114 93 120 124 68 126 123 129 114 59
143 144 140 129 134 143 142 143 153 158 169 178 178 174 170 169 170 170 170 167 165 167 157 154 158 167 178 174 151 130 131 147 153 64 59 76 96 112 122 134 144 152 174
115 118 120 125 135 137 136 143 153 173 182 172 162 159 163 167 166 164 165 160 160 155 155 156 157 158 169 174 167 156 161 173 177 173 181 5 106 125 137 142 165 180 158
111 111 116 116 115 122 131 140 161 173 149 142 147 152 155 163 162 152 157 159 159 163 171 175 192 204 184 184 192 184 182 176 173 188 194 190 147 134 148 154 150 140 130
112 108 110 104 93 101 119 130 155 146 135 138 148 151 147 148 148 154 160 162 168 181 197 200 212 225 216 201 196 190 183 173 171 180 181 173 162 143 140 157 153 146 145
103 103 106 106 98 87 93 105 106 126 132 136 142 144 142 133 115 117 137 158 179 193 204 215 221 218 202 205 189 183 174 160 155 157 152 148 143 138 150 153 164 174 181
104 108 112 110 104 95 84 72 75 96 109 117 122 127 129 129 115 93 65 96 120 199 206 220 209 203 220 234 212 190 189 186 179 151 132 134 148 179 196 204 227 201 175
106 105 101 98 86 77 70 60 64 86 105 110 114 123 125 125 126 122 85 45 50 39 51 62 161 183 190 174 176 184 178 171 163 148 171 198 204 209 211 215 232 224 207
Height
1534 1537 1539 1541 1544 1546 1547 1549 1551 1553 1554 1556 1558 1560 1561 1563 1564 1566 1567 1569 1570 1571 1573 1574 1575 1576 1577 1578 1579 1581 1581 1582 1583 1584 1584 1584 1585 1585 1585 1586 1586 1587 1587
1533 1536 1538 1540 1542 1543 1545 1547 1548 1550 1552 1554 1556 1558 1560 1562 1563 1564 1565 1567 1568 1570 1571 1572 1573 1574 1576 1577 1578 1579 1580 1581 1582 1582 1583 1583 1584 1583 1583 1584 1584 1585 1585
1530 1533 1535 1538 1540 1541 1543 1545 1547 1548 1550 1552 1554 1556 1557 1559 1560 1562 1563 1565 1566 1567 1569 1570 1572 1573 1574 1575 1576 1577 1578 1579 1580 1581 1582 1581 1581 1581 1582 1581 1582 1583 1583
1528 1531 1533 1535 1537 1540 1542 1544 1545 1547 1548 1550 1551 1553 1554 1555 1557 1559 1560 1562 1563 1565 1566 1568 1569 1570 1571 1572 1574 1575 1576 1577 1577 1578 1579 1580 1580 1580 1579 1580 1580 1580 1581
1526 1528 1531 1533 1536 1538 1540 1542 1544 1545 1546 1548 1549 1551 1552 1553 1555 1556 1557 1559 1560 1562 1563 1565 1566 1567 1569 1570 1571 1572 1573 1574 1575 1575 1576 1577 1577 1577 1577 1577 1578 1578 1578
1524 1527 1530 1532 1535 1537 1539 1541 1542 1543 1545 1546 1547 1548 1550 1551 1552 1553 1554 1555 1557 1558 1559 1561 1563 1564 1565 1566 1568 1569 1570 1571 1572 1572 1573 1573 1574 1574 1575 1574 1574 1575 1576
1523 1526 1528 1531 1533 1535 1537 1539 1540 1541 1543 1544 1545 1546 1547 1548 1549 1550 1551 1552 1553 1554 1556 1557 1559 1560 1562 1563 1564 1565 1566 1567 1568 1569 1569 1570 1571 1571 1571 1572 1572 1572 1572
1521 1524 1526 1529 1531 1534 1536 1537 1539 1540 1541 1542 1543 1544 1545 1546 1547 1548 1548 1549 1550 1551 1553 1554 1555 1557 1558 1560 1561 1562 1563 1564 1564 1565 1566 1566 1567 1567 1568 1568 1569 1569 1569
1520 1522 1525 1527 1530 1532 1534 1536 1537 1538 1539 1540 1541 1542 1543 1544 1544 1545 1546 1546 1547 1548 1549 1550 1552 1553 1555 1556 1557 1558 1559 1560 1560 1561 1562 1562 1563 1563 1564 1565 1565 1566 1565
1519 1521 1523 1526 1529 1531 1533 1535 1536 1537 1538 1539 1540 1540 1541 1542 1542 1543 1543 1543 1544 1545 1546 1547 1548 1549 1550 1552 1553 1554 1555 1556 1557 1557 1558 1558 1559 1559 1560 1561 1561 1561 1561
1517 1520 1522 1525 1527 1530 1532 1534 1535 1536 1537 1537 1538 1539 1539 1540 1540 1540 1541 1541 1542 1542 1543 1544 1545 1546 1547 1548 1549 1550 1551 1552 1553 1553 1554 1554 1555 1555 1555 1556 1556 1557 1557
1515 1518 1521 1523 1526 1528 1530 1532 1533 1534 1535 1536 1537 1538 1538 1538 1538 1539 1539 1539 1539 1540 1540 1541 1542 1543 1544 1544 1545 1546 1547 1548 1548 1549 1550 1550 1550 1551 1551 1551 1552 1552 1552
1514 1517 1519 1522 1524 1526 1529 1530 1532 1533 1534 1535 1536 1536 1536 1537 1537 1537 1537 1538 1538 1538 1538 1539 1539 1540 1541 1541 1542 1543 1543 1544 1545 1545 1545 1546 1546 1546 1546 1547 1547 1547 1548
1512 1515 1518 1520 1523 1525 1527 1529 1530 1531 1533 1534 1534 1535 1535 1535 1535 1536 1536 1536 1536 1536 1536 1537 1537 1537 1538 1538 1539 1540 1540 1540 1541 1541 1541 1541 1541 1541 1542 1542 1542 1542 1543
1510 1513 1516 1518 1521 1523 1525 1527 1528 1530 1531 1532 1532 1533 1534 1534 1534 1534 1534 1534 1534 1534 1535 1535 1535 1535 1535 1536 1536 1537 1537 1537 1537 1537 1537 1537 1537 1537 1537 1537 1537 1538 1538
1507 1510 1513 1516 1518 1521 1523 1525 1526 1528 1529 1530 1530 1531 1532 1532 1533 1533 1533 1533 1533 1533 1533 1533 1533 1533 1533 1533 1533 1534 1534 1534 1534 1533 1534 1534 1533 1533 1533 1533 1533 1533 1533
1506 1508 1510 1513 1515 1518 1520 1522 1524 1526 1527 1528 1529 1530 1530 1530 1531 1531 1531 1531 1531 1531 1531 1531 1531 1531 1531 1531 1531 1531 1531 1531 1531 1530 1530 1530 1529 1529 1529 1528 1528 1528 1528
1503 1505 1508 1511 1514 1516 1518 1520 1522 1523 1524 1525 1526 1527 1528 1528 1529 1529 1529 1529 1529 1529 1529 1529 1529 1529 1529 1529 1528 1528 1528 1528 1528 1528 1527 1527 1526 1525 1525 1525 1524 1524 1524
1499 1503 1506 1509 1511 1513 1515 1518 1520 1521 1522 1523 1524 1524 1525 1525 1526 1526 1526 1527 1527 1527 1527 1527 1527 1527 1526 1526 1526 1526 1526 1525 1525 1525 1525 1524 1523 1523 1522 1522 1521 1520 1520
1498 1501 1504 1506 1509 1511 1513 1515 1516 1518 1519 1520 1521 1521 1522 1522 1523 1524 1524 1524 1525 1525 1525 1525 1524 1524 1524 1524 1524 1523 1523 1523 1523 1522 1522 1521 1521 1520 1519 1519 1518 1517 1517
1497 1499 1502 1504 1507 1509 1511 1512 1513 1514 1516 1517 1518 1519 1519 1520 1520 1521 1522 1522 1522 1522 1522 1522 1522 1521 1521 1521 1521 1520 1520 1520 1519 1519 1519 1518 1518 1518 1517 1517 1516 1516 1515
1496 1498 1500 1502 1505 1506 1508 1509 1511 1512 1513 1514 1515 1516 1516 1517 1517 1518 1519 1519 1519 1519 1519 1519 1519 1519 1518 1518 1518 1517 1517 1517 1516 1516 1516 1516 1516 1515 1515 1514 1514 1514 1514
1496 1498 1500 1501 1504 1505 1506 1507 1508 1510 1510 1511 1512 1513 1514 1514 1515 1515 1516 1516 1516 1516 1516 1516 1515 1515 1515 1515 1514 1514 1514 1513 1513 1513 1513 1513 1513 1512 1512 1512 1512 1512 1512
1496 1497 1499 1500 1502 1504 1505 1506 1507 1507 1508 1509 1510 1510 1511 1511 1512 1512 1512 1513 1513 1513 1513 1512 1512 1512 1511 1511 1511 1510 1510 1510 1510 1510 1510 1510 1510 1510 1509 1509 1509 1509 1509
1496 1497 1497 1499 1501 1502 1503 1504 1505 1506 1506 1507 1507 1508 1508 1508 1509 1509 1509 1509 1509 1509 1509 1509 1509 1508 1508 1508 1507 1507 1506 1506 1506 1506 1506 1506 1506 1506 1506 1506 1506 1506 1507
1496 1497 1498 1499 1500 1501 1502 1502 1503 1503 1504 1505 1505 1505 1506 1506 1506 1506 1506 1506 1506 1505 1505 1506 1506 1505 1505 1504 1504 1504 1503 1503 1503 1503 1503 1503 1503 1503 1503 1503 1503 1504 1504